Hourly Weather Barnab

Today, 23 September, Wednesday

Time Temperature Precipitation Wind Pressure Humidity
00:00 +10°C° 0 mm 1 mps 615 mmHg 92%
01:00 +10°C° 0 mm 1 mps 615 mmHg 92%
02:00 +10°C° 0 mm 1 mps 615 mmHg 92%
03:00 +10°C° 0 mm 1 mps 615 mmHg 92%
04:00 +10°C° 0 mm 1 mps 615 mmHg 91%
05:00 +10°C° 0 mm 1 mps 614 mmHg 89%
06:00 +10°C° 0 mm 1 mps 614 mmHg 88%
07:00 +11°C° 0 mm 1 mps 615 mmHg 83%
08:00 +13°C° 0 mm 2 mps 616 mmHg 78%
09:00 +15°C° 0 mm 2 mps 616 mmHg 72%
10:00 +15°C° 0 mm 2 mps 616 mmHg 71%
11:00 +16°C° 0 mm 2 mps 617 mmHg 69%
12:00 +17°C° 0 mm 2 mps 617 mmHg 68%
13:00 +17°C° 0.1 mm 2 mps 616 mmHg 70%
14:00 +16°C° 0.1 mm 2 mps 616 mmHg 71%
15:00 +16°C° 0.1 mm 2 mps 615 mmHg 73%
16:00 +15°C° 0.2 mm 1 mps 615 mmHg 79%
17:00 +13°C° 0.2 mm 1 mps 614 mmHg 85%
18:00 +12°C° 0.2 mm 1 mps 613 mmHg 91%
19:00 +12°C° 0 mm 1 mps 613 mmHg 91%
20:00 +11°C° 0 mm 1 mps 613 mmHg 92%
21:00 +11°C° 0 mm 1 mps 613 mmHg 92%
22:00 +11°C° 0 mm 1 mps 613 mmHg 92%
23:00 +11°C° 0 mm 1 mps 613 mmHg 91%

Tomorrow, 24 September, Thursday

Time Temperature Precipitation Wind Pressure Humidity
00:00 +11°C° 0 mm 1 mps 613 mmHg 90%
01:00 +10°C° 0 mm 1 mps 613 mmHg 90%
02:00 +10°C° 0 mm 1 mps 612 mmHg 90%
03:00 +10°C° 0 mm 1 mps 612 mmHg 90%
04:00 +10°C° 0 mm 1 mps 612 mmHg 89%
05:00 +10°C° 0 mm 1 mps 612 mmHg 89%
06:00 +10°C° 0 mm 1 mps 612 mmHg 89%
07:00 +12°C° 0 mm 1 mps 613 mmHg 83%
08:00 +14°C° 0 mm 2 mps 614 mmHg 78%
09:00 +15°C° 0 mm 2 mps 614 mmHg 72%
10:00 +16°C° 0 mm 2 mps 615 mmHg 68%
11:00 +17°C° 0 mm 2 mps 615 mmHg 64%
12:00 +18°C° 0 mm 2 mps 615 mmHg 60%
13:00 +18°C° 0.1 mm 2 mps 615 mmHg 59%
14:00 +18°C° 0.1 mm 2 mps 615 mmHg 59%
15:00 +18°C° 0.1 mm 2 mps 614 mmHg 58%
16:00 +16°C° 0.1 mm 2 mps 614 mmHg 67%
17:00 +14°C° 0.1 mm 1 mps 613 mmHg 77%
18:00 +12°C° 0.1 mm 1 mps 612 mmHg 86%
19:00 +12°C° 0 mm 1 mps 612 mmHg 86%
20:00 +12°C° 0 mm 1 mps 612 mmHg 86%
21:00 +11°C° 0 mm 1 mps 612 mmHg 85%
22:00 +11°C° 0 mm 1 mps 612 mmHg 86%
23:00 +11°C° 0 mm 1 mps 612 mmHg 87%

Day after tomorrow, 25 September, Friday

Time Temperature Precipitation Wind Pressure Humidity
00:00 +11°C° 0 mm 1 mps 612 mmHg 88%
01:00 +11°C° 0 mm 1 mps 612 mmHg 89%
02:00 +11°C° 0 mm 1 mps 612 mmHg 91%
03:00 +10°C° 0 mm 1 mps 612 mmHg 92%
04:00 +11°C° 0 mm 1 mps 612 mmHg 91%
05:00 +11°C° 0 mm 1 mps 612 mmHg 89%
06:00 +12°C° 0 mm 1 mps 612 mmHg 88%
07:00 +13°C° 0 mm 1 mps 613 mmHg 80%
08:00 +15°C° 0 mm 1 mps 613 mmHg 72%
09:00 +18°C° 0 mm 1 mps 614 mmHg 64%
10:00 +17°C° 0.2 mm 2 mps 614 mmHg 63%
11:00 +18°C° 0.2 mm 2 mps 614 mmHg 61%
12:00 +19°C° 0.2 mm 3 mps 614 mmHg 60%
13:00 +18°C° 0.5 mm 2 mps 614 mmHg 60%
14:00 +18°C° 0.5 mm 2 mps 613 mmHg 60%
15:00 +18°C° 0.5 mm 2 mps 613 mmHg 60%
16:00 +17°C° 0.2 mm 2 mps 612 mmHg 68%
17:00 +15°C° 0.2 mm 1 mps 612 mmHg 76%
18:00 +13°C° 0.2 mm 1 mps 611 mmHg 83%
19:00 +13°C° 0 mm 1 mps 611 mmHg 83%
20:00 +13°C° 0 mm 1 mps 611 mmHg 84%
21:00 +13°C° 0 mm 1 mps 611 mmHg 84%
22:00 +12°C° 0 mm 2 mps 611 mmHg 85%
23:00 +12°C° 0 mm 2 mps 611 mmHg 86%

26 September, Saturday

Time Temperature Precipitation Wind Pressure Humidity
00:00 +10°C° 0 mm 2 mps 610 mmHg 88%
01:00 +10°C° 0.1 mm 2 mps 610 mmHg 88%
02:00 +10°C° 0.1 mm 2 mps 610 mmHg 87%
03:00 +11°C° 0.1 mm 1 mps 610 mmHg 87%
04:00 +11°C° 0.4 mm 1 mps 610 mmHg 87%
05:00 +12°C° 0.4 mm 1 mps 610 mmHg 86%
06:00 +12°C° 0.4 mm 1 mps 610 mmHg 86%
07:00 +13°C° 0 mm 2 mps 611 mmHg 82%
08:00 +14°C° 0 mm 2 mps 611 mmHg 77%
09:00 +15°C° 0 mm 2 mps 612 mmHg 73%
10:00 +16°C° 0.2 mm 2 mps 612 mmHg 69%
11:00 +17°C° 0.2 mm 3 mps 612 mmHg 66%
12:00 +18°C° 0.2 mm 3 mps 612 mmHg 63%
13:00 +17°C° 0.3 mm 3 mps 612 mmHg 63%
14:00 +17°C° 0.3 mm 3 mps 612 mmHg 64%
15:00 +17°C° 0.3 mm 2 mps 612 mmHg 64%
16:00 +15°C° 0 mm 2 mps 611 mmHg 70%
17:00 +14°C° 0 mm 2 mps 611 mmHg 75%
18:00 +12°C° 0 mm 1 mps 610 mmHg 81%
19:00 +12°C° 0 mm 2 mps 611 mmHg 80%
20:00 +12°C° 0 mm 2 mps 611 mmHg 79%
21:00 +12°C° 0 mm 2 mps 611 mmHg 78%
22:00 +10°C° 0 mm 2 mps 611 mmHg 77%
23:00 +9°C° 0 mm 2 mps 611 mmHg 75%

27 September, Sunday

Time Temperature Precipitation Wind Pressure Humidity
00:00 +9°C° 0 mm 2 mps 610 mmHg 74%
01:00 +8°C° 0 mm 2 mps 610 mmHg 74%
02:00 +8°C° 0 mm 2 mps 610 mmHg 74%
03:00 +8°C° 0 mm 2 mps 610 mmHg 74%
04:00 +9°C° 0 mm 1 mps 610 mmHg 75%
05:00 +8°C° 0 mm 1 mps 610 mmHg 75%
06:00 +8°C° 0 mm 1 mps 610 mmHg 76%
07:00 +11°C° 0 mm 1 mps 612 mmHg 70%
08:00 +13°C° 0 mm 2 mps 613 mmHg 65%
09:00 +15°C° 0 mm 2 mps 614 mmHg 59%
10:00 +16°C° 0 mm 2 mps 614 mmHg 57%
11:00 +17°C° 0 mm 2 mps 615 mmHg 55%
12:00 +18°C° 0 mm 2 mps 615 mmHg 53%
13:00 +18°C° 0 mm 2 mps 615 mmHg 55%
14:00 +18°C° 0 mm 2 mps 615 mmHg 56%
15:00 +17°C° 0 mm 2 mps 615 mmHg 58%
16:00 +16°C° 0.1 mm 1 mps 614 mmHg 65%
17:00 +14°C° 0.1 mm 1 mps 614 mmHg 73%
18:00 +11°C° 0.1 mm 0 mps 613 mmHg 80%
19:00 +12°C° 0 mm 1 mps 613 mmHg 81%
20:00 +11°C° 0 mm 1 mps 614 mmHg 82%
21:00 +10°C° 0 mm 1 mps 614 mmHg 83%
22:00 +10°C° 0 mm 1 mps 614 mmHg 83%
23:00 +9°C° 0 mm 1 mps 614 mmHg 84%

28 September, Monday

Time Temperature Precipitation Wind Pressure Humidity
00:00 +9°C° 0 mm 1 mps 614 mmHg 84%
01:00 +9°C° 0 mm 1 mps 613 mmHg 83%
02:00 +9°C° 0 mm 1 mps 613 mmHg 83%
03:00 +8°C° 0 mm 1 mps 613 mmHg 83%
04:00 +8°C° 0 mm 1 mps 614 mmHg 81%
05:00 +8°C° 0 mm 1 mps 614 mmHg 79%
06:00 +8°C° 0 mm 1 mps 614 mmHg 78%
07:00 +11°C° 0 mm 1 mps 615 mmHg 69%
08:00 +14°C° 0 mm 1 mps 616 mmHg 60%
09:00 +16°C° 0 mm 1 mps 617 mmHg 50%
10:00 +18°C° 0 mm 1 mps 618 mmHg 49%
11:00 +18°C° 0 mm 2 mps 618 mmHg 47%
12:00 +19°C° 0 mm 2 mps 618 mmHg 46%
13:00 +19°C° 0 mm 2 mps 618 mmHg 48%
14:00 +19°C° 0 mm 2 mps 618 mmHg 49%
15:00 +19°C° 0 mm 2 mps 617 mmHg 51%
16:00 +16°C° 0 mm 1 mps 617 mmHg 60%
17:00 +14°C° 0 mm 1 mps 616 mmHg 69%
18:00 +11°C° 0 mm 0 mps 615 mmHg 77%
19:00 +11°C° 0 mm 1 mps 615 mmHg 78%
20:00 +11°C° 0 mm 1 mps 615 mmHg 79%
21:00 +10°C° 0 mm 1 mps 615 mmHg 79%
22:00 +10°C° 0 mm 1 mps 615 mmHg 79%
23:00 +9°C° 0 mm 1 mps 614 mmHg 80%
Show more